TimeAKST,TemperatureF,Dew PointF,Humidity,Sea Level PressureIn,VisibilityMPH,Wind Direction,Wind SpeedMPH,Gust SpeedMPH,PrecipitationIn,Events,Conditions,WindDirDegrees,DateUTC
12:55 AM,12.4,10.4,92,29.31,10.0,NNE,26.5,-,N/A,,Mostly Cloudy,30,2013-01-06 09:55:00
1:55 AM,14.0,12.9,95,29.31,10.0,NNE,24.2,-,N/A,,Mostly Cloudy,30,2013-01-06 10:55:00
2:55 AM,16.2,14.0,91,29.30,10.0,NNE,25.3,-,N/A,,Mostly Cloudy,30,2013-01-06 11:55:00
3:55 AM,15.8,14.0,93,29.27,10.0,NNE,27.6,-,N/A,,Overcast,30,2013-01-06 12:55:00
4:55 AM,16.0,14.0,92,29.28,10.0,NNE,28.8,-,N/A,,Overcast,30,2013-01-06 13:55:00
5:55 AM,15.8,14.4,94,29.27,10.0,NNE,28.8,-,N/A,,Overcast,30,2013-01-06 14:55:00
6:55 AM,16.5,15.1,94,29.28,10.0,NNE,21.9,-,N/A,Snow,Light Snow,30,2013-01-06 15:55:00
7:55 AM,16.2,15.3,96,29.27,4.0,NNE,23.0,-,N/A,Snow,Light Snow,30,2013-01-06 16:55:00
8:40 AM,15.8,15.8,100,29.28,1.8,NNE,17.3,-,N/A,Snow,Light Snow,20,2013-01-06 17:40:00
8:55 AM,16.3,15.1,95,29.27,2.0,NNE,19.6,-,N/A,Snow,Light Snow,20,2013-01-06 17:55:00
9:15 AM,15.8,15.8,100,29.27,2.5,NNE,17.3,-,N/A,Snow,Light Snow,30,2013-01-06 18:15:00
9:35 AM,15.8,15.8,100,29.28,1.8,NNE,17.3,-,N/A,Snow,Light Snow,30,2013-01-06 18:35:00
9:55 AM,16.0,14.7,95,29.28,4.0,NNE,17.3,-,N/A,Snow,Light Snow,30,2013-01-06 18:55:00
10:55 AM,16.0,14.9,95,29.29,5.0,NE,11.5,-,N/A,Snow,Light Snow,40,2013-01-06 19:55:00
11:10 AM,15.8,15.8,100,29.29,2.0,NE,11.5,-,N/A,Snow,Light Snow,40,2013-01-06 20:10:00
11:30 AM,17.6,15.8,93,29.29,1.2,NE,9.2,-,N/A,Snow,Light Snow,40,2013-01-06 20:30:00
11:55 AM,16.3,15.3,96,29.29,1.0,NE,12.7,-,N/A,Snow,Light Snow,40,2013-01-06 20:55:00
12:35 PM,17.6,15.8,93,29.30,1.5,NNE,15.0,-,N/A,Snow,Light Snow,30,2013-01-06 21:35:00
12:55 PM,17.1,15.8,95,29.31,2.5,NNE,13.8,-,N/A,Snow,Light Snow,30,2013-01-06 21:55:00
1:40 PM,17.6,15.8,93,29.31,1.8,NE,11.5,-,N/A,Snow,Light Snow,40,2013-01-06 22:40:00
1:55 PM,17.4,16.2,95,29.31,3.0,NE,10.4,-,N/A,Snow,Light Snow,40,2013-01-06 22:55:00
2:55 PM,17.1,16.0,96,29.31,3.0,NE,9.2,-,N/A,Snow,Light Snow,40,2013-01-06 23:55:00
3:55 PM,15.6,15.3,98,29.31,10.0,NE,8.1,-,N/A,Snow,Light Snow,40,2013-01-07 00:55:00
4:55 PM,18.9,17.2,93,29.31,10.0,NE,3.5,-,N/A,Snow,Light Snow Showers,50,2013-01-07 01:55:00
5:55 PM,16.7,15.6,96,29.33,10.0,NE,6.9,-,N/A,Snow,Light Snow,40,2013-01-07 02:55:00
6:55 PM,18.7,17.8,96,29.32,10.0,NNE,4.6,-,N/A,Snow,Light Snow,30,2013-01-07 03:55:00
7:55 PM,16.5,15.6,96,29.33,10.0,NE,11.5,-,N/A,Snow,Light Snow Showers,40,2013-01-07 04:55:00
8:55 PM,16.9,16.2,97,29.33,10.0,NE,12.7,-,N/A,,Mostly Cloudy,40,2013-01-07 05:55:00
9:55 PM,16.3,15.1,95,29.33,10.0,NNE,16.1,-,N/A,,Mostly Cloudy,20,2013-01-07 06:55:00
10:55 PM,16.7,14.9,93,29.34,10.0,NNE,17.3,-,N/A,,Overcast,30,2013-01-07 07:55:00
11:55 PM,17.6,16.7,96,29.37,10.0,NNE,12.7,-,N/A,,Overcast,30,2013-01-07 08:55:00